TimeEET,TemperatureF,Dew PointF,Humidity,Sea Level PressureIn,VisibilityMPH,Wind Direction,Wind SpeedMPH,Gust SpeedMPH,PrecipitationIn,Events,Conditions,WindDirDegrees,DateUTC
12:00 AM,55.4,42.8,63,30.06,-9999.0,SSE,4.6,-,N/A,,Clear,160,2012-12-18 22:00:00
1:00 AM,53.6,42.8,67,30.06,-9999.0,Calm,Calm,-,N/A,,Clear,0,2012-12-18 23:00:00
2:00 AM,52,41,57,30.07,6,Calm,Calm,,,,,,2012-12-19 00:00:00
2:00 AM,51.8,41.0,67,30.06,-9999.0,Calm,Calm,-,N/A,,Clear,0,2012-12-19 00:00:00
3:00 AM,50.0,41.0,71,30.04,-9999.0,Calm,Calm,-,N/A,,Clear,0,2012-12-19 01:00:00
4:00 AM,48.2,41.0,76,30.04,-9999.0,Calm,Calm,-,N/A,,Clear,0,2012-12-19 02:00:00
5:00 AM,48.2,41.0,76,30.04,-9999.0,Calm,Calm,-,N/A,,Clear,0,2012-12-19 03:00:00
6:00 AM,46.4,41.0,81,30.04,-9999.0,Calm,Calm,-,N/A,,Clear,0,2012-12-19 04:00:00
7:00 AM,46.4,39.2,76,30.06,-9999.0,Calm,Calm,-,N/A,,Clear,0,2012-12-19 05:00:00
8:00 AM,50,41,63,30.10,6,Calm,Calm,,,,,,2012-12-19 06:00:00
8:00 AM,50.0,41.0,71,30.09,-9999.0,Calm,Calm,-,N/A,,Clear,0,2012-12-19 06:00:00
9:00 AM,57.2,42.8,59,30.09,-9999.0,Calm,Calm,-,N/A,,Clear,0,2012-12-19 07:00:00
10:00 AM,62.6,46.4,55,30.09,-9999.0,Calm,Calm,-,N/A,,Clear,0,2012-12-19 08:00:00
11:00 AM,68.0,46.4,46,30.06,-9999.0,Calm,Calm,-,N/A,,Clear,0,2012-12-19 09:00:00
12:00 PM,71.6,48.2,43,30.06,-9999.0,SW,2.3,-,N/A,,Clear,220,2012-12-19 10:00:00
1:00 PM,73.4,48.2,41,30.01,-9999.0,Calm,Calm,-,N/A,,Clear,0,2012-12-19 11:00:00
2:00 PM,74,47,27,30.01,6,Calm,Calm,,,,,,2012-12-19 12:00:00
2:00 PM,73.4,46.4,38,30.01,-9999.0,Calm,Calm,-,N/A,,Clear,0,2012-12-19 12:00:00
3:00 PM,75.2,46.4,36,29.98,-9999.0,Calm,Calm,-,N/A,,Clear,0,2012-12-19 13:00:00
4:00 PM,75.2,44.6,34,29.98,-9999.0,Calm,Calm,-,N/A,,Clear,0,2012-12-19 14:00:00
5:00 PM,73.4,44.6,36,29.98,-9999.0,Calm,Calm,-,N/A,,Clear,0,2012-12-19 15:00:00
6:00 PM,68.0,44.6,43,29.98,-9999.0,North,1.2,-,N/A,,Clear,10,2012-12-19 16:00:00
7:00 PM,66.2,41.0,40,30.01,-9999.0,South,2.3,-,N/A,,Clear,170,2012-12-19 17:00:00
8:00 PM,61,41,36,30.01,6,Calm,Calm,,,,,,2012-12-19 18:00:00
8:00 PM,60.8,41.0,48,30.01,-9999.0,Calm,Calm,-,N/A,,Clear,0,2012-12-19 18:00:00
9:00 PM,60.8,39.2,45,30.01,-9999.0,South,3.5,-,N/A,,Clear,170,2012-12-19 19:00:00
10:00 PM,57.2,41.0,55,30.01,-9999.0,Calm,Calm,-,N/A,,Clear,0,2012-12-19 20:00:00
11:00 PM,57.2,37.4,48,30.01,-9999.0,Calm,Calm,-,N/A,,Clear,0,2012-12-19 21:00:00